| time (UTC) | temp F | wind direction | speed MPH | gust MPH | rain 1hr in | rain 24hr in | rain mn in | humidity % | barometer mb |
| 20260901163046 | 70 | 86 | 1.0 | 4.0 | 0.00 | 0.08 | 0.01 | 69 | 1009.0 |
| 20260901162548 | 70 | 57 | 1.0 | 3.0 | 0.00 | 0.08 | 0.01 | 71 | 1008.9 |
| 20260901162045 | 71 | 9 | 1.0 | 3.0 | 0.00 | 0.08 | 0.01 | 68 | 1009.0 |
| 20260901161557 | 70 | 325 | 0.0 | 2.0 | 0.00 | 0.08 | 0.01 | 72 | 1009.1 |
| 20260901161044 | 69 | 214 | 0.0 | 2.0 | 0.00 | 0.08 | 0.01 | 74 | 1009.1 |
| 20260901160542 | 69 | 175 | 0.0 | 2.0 | 0.00 | 0.08 | 0.01 | 77 | 1009.0 |
| 20260901160040 | 67 | 248 | 0.0 | 2.0 | 0.00 | 0.08 | 0.01 | 79 | 1009.1 |
| 20260901155539 | 66 | 111 | 0.0 | 3.0 | 0.00 | 0.08 | 0.01 | 80 | 1009.1 |
| 20260901155041 | 66 | 218 | 1.0 | 3.0 | 0.00 | 0.08 | 0.01 | 80 | 1009.2 |
| 20260901154539 | 66 | 232 | 0.0 | 2.0 | 0.00 | 0.08 | 0.01 | 80 | 1009.1 |
| 20260901154036 | 66 | 232 | 0.0 | 2.0 | 0.00 | 0.08 | 0.01 | 81 | 1009.2 |
| 20260901153535 | 66 | 232 | 0.0 | 2.0 | 0.00 | 0.08 | 0.01 | 84 | 1009.2 |
| 20260901153044 | 66 | 229 | 0.0 | 2.0 | 0.00 | 0.08 | 0.01 | 84 | 1009.1 |
| 20260901152534 | 65 | 231 | 0.0 | 2.0 | 0.00 | 0.08 | 0.01 | 87 | 1009.2 |
| 20260901152033 | 65 | 229 | 0.0 | 3.0 | 0.00 | 0.08 | 0.01 | 86 | 1009.1 |
| 20260901151533 | 65 | 228 | 1.0 | 3.0 | 0.00 | 0.08 | 0.01 | 87 | 1009.2 |
| 20260901151032 | 65 | 209 | 0.0 | 1.0 | 0.00 | 0.08 | 0.01 | 88 | 1009.2 |
| 20260901150531 | 64 | 207 | 0.0 | 2.0 | 0.00 | 0.08 | 0.01 | 89 | 1009.2 |
| 20260901150030 | 63 | 209 | 0.0 | 2.0 | 0.00 | 0.08 | 0.01 | 90 | 1009.2 |
| 20260901145529 | 63 | 157 | 0.0 | 2.0 | 0.00 | 0.08 | 0.01 | 91 | 1009.2 |
| 20260901145028 | 63 | 153 | 0.0 | 2.0 | 0.00 | 0.08 | 0.01 | 91 | 1009.3 |
| 20260901144527 | 63 | 136 | 0.0 | 1.0 | 0.00 | 0.08 | 0.01 | 91 | 1009.2 |
| 20260901144026 | 62 | 137 | 0.0 | 1.0 | 0.00 | 0.08 | 0.01 | 92 | 1009.3 |
| 20260901143526 | 62 | 138 | 0.0 | 1.0 | 0.00 | 0.08 | 0.01 | 92 | 1009.3 |
| 20260901143026 | 62 | 132 | 0.0 | 2.0 | 0.00 | 0.08 | 0.01 | 92 | 1009.3 |
| 20260901142525 | 62 | 83 | 0.0 | 3.0 | 0.00 | 0.08 | 0.01 | 92 | 1009.3 |
| 20260901142025 | 62 | 112 | 0.0 | 2.0 | 0.00 | 0.08 | 0.01 | 93 | 1009.4 |
| 20260901141535 | 61 | 159 | 0.0 | 2.0 | 0.00 | 0.08 | 0.01 | 93 | 1009.3 |
| 20260901141025 | 61 | 120 | 0.0 | 2.0 | 0.00 | 0.08 | 0.01 | 93 | 1009.2 |
| 20260901140526 | 61 | 198 | 0.0 | 2.0 | 0.00 | 0.08 | 0.01 | 93 | 1009.2 |
| 20260901140029 | 61 | 190 | 0.0 | 2.0 | 0.00 | 0.08 | 0.01 | 93 | 1009.1 |
| 20260901135528 | 61 | 134 | 0.0 | 2.0 | 0.00 | 0.08 | 0.01 | 93 | 1009.1 |
| 20260901135029 | 61 | 131 | 0.0 | 2.0 | 0.00 | 0.08 | 0.01 | 93 | 1009.0 |
| 20260901134524 | 60 | 132 | 0.0 | 1.0 | 0.00 | 0.08 | 0.01 | 93 | 1009.0 |
| 20260901134024 | 60 | 134 | 0.0 | 1.0 | 0.00 | 0.08 | 0.01 | 93 | 1009.0 |
| 20260901133523 | 60 | 142 | 0.0 | 2.0 | 0.00 | 0.08 | 0.01 | 93 | 1008.9 |
| 20260901133023 | 60 | 211 | 1.0 | 2.0 | 0.00 | 0.08 | 0.01 | 93 | 1008.8 |
| 20260901132523 | 60 | 211 | 0.0 | 1.0 | 0.00 | 0.08 | 0.01 | 92 | 1008.7 |
| 20260901132023 | 60 | 211 | 0.0 | 1.0 | 0.00 | 0.08 | 0.01 | 92 | 1008.7 |
| 20260901131531 | 60 | 211 | 0.0 | 1.0 | 0.00 | 0.08 | 0.01 | 92 | 1008.6 |
| 20260901131022 | 59 | 211 | 0.0 | 0.0 | 0.00 | 0.08 | 0.01 | 92 | 1008.7 |
| 20260901130522 | 59 | 210 | 0.0 | 1.0 | 0.00 | 0.08 | 0.01 | 92 | 1008.4 |
| 20260901130023 | 59 | 210 | 0.0 | 1.0 | 0.00 | 0.08 | 0.01 | 92 | 1008.4 |
| 20260901125521 | 59 | 210 | 0.0 | 1.0 | 0.00 | 0.08 | 0.01 | 91 | 1008.3 |
| 20260901125022 | 59 | 210 | 0.0 | 1.0 | 0.00 | 0.08 | 0.01 | 91 | 1008.1 |
| 20260901124524 | 59 | 210 | 0.0 | 0.0 | 0.00 | 0.08 | 0.01 | 91 | 1008.1 |
| 20260901124023 | 59 | 210 | 0.0 | 0.0 | 0.00 | 0.08 | 0.01 | 91 | 1008.0 |
| 20260901123520 | 59 | 210 | 0.0 | 0.0 | 0.00 | 0.08 | 0.01 | 91 | 1008.0 |
| 20260901123020 | 59 | 210 | 0.0 | 0.0 | 0.00 | 0.08 | 0.01 | 91 | 1007.9 |
| 20260901122521 | 59 | 210 | 0.0 | 0.0 | 0.00 | 0.08 | 0.01 | 91 | 1008.0 |
| 20260901122019 | 60 | 211 | 0.0 | 0.0 | 0.00 | 0.08 | 0.01 | 91 | 1008.2 |
| 20260901121523 | 60 | 211 | 0.0 | 0.0 | 0.00 | 0.08 | 0.01 | 91 | 1008.0 |
| 20260901121022 | 60 | 211 | 0.0 | 0.0 | 0.00 | 0.08 | 0.01 | 91 | 1008.1 |
| 20260901120520 | 60 | 211 | 0.0 | 1.0 | 0.00 | 0.08 | 0.01 | 91 | 1008.1 |
| 20260901120018 | 60 | 211 | 0.0 | 1.0 | 0.00 | 0.08 | 0.01 | 91 | 1008.2 |
| 20260901115518 | 60 | 211 | 0.0 | 1.0 | 0.00 | 0.08 | 0.01 | 91 | 1008.2 |
| 20260901115019 | 60 | 211 | 0.0 | 1.0 | 0.00 | 0.08 | 0.01 | 91 | 1008.1 |
| 20260901114518 | 60 | 211 | 0.0 | 2.0 | 0.00 | 0.08 | 0.01 | 91 | 1008.0 |
| 20260901114017 | 60 | 211 | 0.0 | 2.0 | 0.00 | 0.08 | 0.01 | 91 | 1008.0 |
| 20260901113517 | 60 | 211 | 0.0 | 0.0 | 0.00 | 0.08 | 0.01 | 91 | 1008.0 |
| 20260901113018 | 60 | 211 | 0.0 | 0.0 | 0.00 | 0.08 | 0.01 | 91 | 1008.0 |
| 20260901112517 | 60 | 211 | 0.0 | 0.0 | 0.00 | 0.08 | 0.01 | 91 | 1007.9 |
| 20260901112017 | 60 | 211 | 0.0 | 0.0 | 0.00 | 0.08 | 0.01 | 91 | 1008.0 |
| 20260901111517 | 60 | 211 | 0.0 | 2.0 | 0.00 | 0.08 | 0.01 | 90 | 1008.0 |
| 20260901111017 | 60 | 211 | 0.0 | 2.0 | 0.00 | 0.08 | 0.01 | 90 | 1008.0 |
| 20260901110516 | 60 | 211 | 0.0 | 1.0 | 0.00 | 0.08 | 0.01 | 90 | 1008.0 |
| 20260901110020 | 60 | 211 | 0.0 | 0.0 | 0.00 | 0.08 | 0.01 | 90 | 1008.0 |
| 20260901105516 | 60 | 211 | 0.0 | 0.0 | 0.00 | 0.08 | 0.01 | 90 | 1008.1 |
| 20260901105015 | 60 | 211 | 0.0 | 0.0 | 0.00 | 0.08 | 0.01 | 90 | 1008.0 |
| 20260901104524 | 60 | 211 | 0.0 | 1.0 | 0.00 | 0.08 | 0.01 | 90 | 1008.1 |
| 20260901104015 | 60 | 211 | 0.0 | 1.0 | 0.00 | 0.08 | 0.01 | 90 | 1008.1 |
| 20260901103513 | 60 | 211 | 0.0 | 1.0 | 0.00 | 0.08 | 0.01 | 90 | 1008.2 |
| 20260901103012 | 60 | 211 | 0.0 | 2.0 | 0.00 | 0.08 | 0.01 | 90 | 1008.5 |
| 20260901102511 | 61 | 211 | 0.0 | 2.0 | 0.00 | 0.08 | 0.01 | 90 | 1008.5 |
| 20260901102011 | 61 | 211 | 0.0 | 1.0 | 0.00 | 0.08 | 0.01 | 90 | 1008.6 |
| 20260901101510 | 61 | 211 | 0.0 | 1.0 | 0.00 | 0.08 | 0.01 | 90 | 1008.6 |
| 20260901101010 | 61 | 211 | 0.0 | 1.0 | 0.00 | 0.08 | 0.01 | 90 | 1008.5 |
| 20260901100510 | 61 | 211 | 0.0 | 2.0 | 0.00 | 0.08 | 0.01 | 90 | 1008.6 |
| 20260901100010 | 61 | 211 | 0.0 | 3.0 | 0.00 | 0.08 | 0.01 | 90 | 1008.5 |
| 20260901095512 | 61 | 211 | 1.0 | 3.0 | 0.00 | 0.08 | 0.01 | 90 | 1008.7 |
| 20260901095008 | 61 | 211 | 0.0 | 1.0 | 0.00 | 0.08 | 0.01 | 90 | 1008.8 |
| 20260901094508 | 61 | 211 | 0.0 | 1.0 | 0.00 | 0.08 | 0.01 | 90 | 1008.6 |
| 20260901094005 | 61 | 211 | 0.0 | 2.0 | 0.00 | 0.08 | 0.01 | 90 | 1008.8 |
| 20260901093505 | 62 | 211 | 0.0 | 2.0 | 0.00 | 0.08 | 0.01 | 90 | 1008.8 |
| 20260901093005 | 62 | 211 | 1.0 | 2.0 | 0.00 | 0.08 | 0.01 | 90 | 1008.9 |
| 20260901092504 | 62 | 211 | 0.0 | 1.0 | 0.00 | 0.08 | 0.01 | 90 | 1008.9 |
| 20260901092004 | 62 | 211 | 0.0 | 1.0 | 0.00 | 0.08 | 0.01 | 90 | 1009.0 |
| 20260901091504 | 62 | 211 | 0.0 | 0.0 | 0.00 | 0.08 | 0.01 | 90 | 1009.0 |
| 20260901091003 | 62 | 211 | 0.0 | 0.0 | 0.00 | 0.08 | 0.01 | 89 | 1009.0 |
| 20260901090503 | 62 | 211 | 0.0 | 0.0 | 0.00 | 0.08 | 0.01 | 89 | 1009.0 |
| 20260901090006 | 62 | 211 | 0.0 | 0.0 | 0.00 | 0.08 | 0.01 | 89 | 1009.0 |
| 20260901085502 | 62 | 211 | 0.0 | 0.0 | 0.00 | 0.08 | 0.01 | 89 | 1009.1 |
| 20260901085002 | 62 | 211 | 0.0 | 0.0 | 0.00 | 0.08 | 0.01 | 89 | 1009.1 |
| 20260901084505 | 62 | 211 | 0.0 | 0.0 | 0.00 | 0.08 | 0.01 | 90 | 1009.0 |
| 20260901084001 | 62 | 200 | 0.0 | 1.0 | 0.01 | 0.08 | 0.01 | 90 | 1008.9 |
| 20260901083504 | 62 | 205 | 0.0 | 1.0 | 0.01 | 0.08 | 0.01 | 90 | 1009.0 |
| 20260901083101 | 62 | 186 | 0.0 | 1.0 | 0.01 | 0.08 | 0.01 | 89 | 1009.1 |
| 20260901082600 | 62 | 183 | 0.0 | 2.0 | 0.01 | 0.08 | 0.01 | 89 | 1009.1 |
| 20260901082102 | 62 | 184 | 0.0 | 2.0 | 0.01 | 0.08 | 0.01 | 89 | 1009.3 |
| 20260901081610 | 62 | 186 | 0.0 | 2.0 | 0.01 | 0.08 | 0.01 | 89 | 1009.4 |
| 20260901081059 | 62 | 186 | 0.0 | 2.0 | 0.01 | 0.08 | 0.01 | 89 | 1009.6 |
| 20260901080602 | 62 | 167 | 0.0 | 2.0 | 0.01 | 0.08 | 0.01 | 89 | 1009.6 |
| 20260901080100 | 62 | 139 | 0.0 | 1.0 | 0.01 | 0.08 | 0.01 | 89 | 1009.4 |
| 20260901075559 | 62 | 140 | 0.0 | 2.0 | 0.01 | 0.08 | 0.01 | 89 | 1009.4 |
| 20260901075059 | 62 | 138 | 0.0 | 2.0 | 0.01 | 0.08 | 0.01 | 89 | 1009.6 |
| 20260901074558 | 62 | 111 | 0.0 | 3.0 | 0.01 | 0.08 | 0.01 | 89 | 1009.7 |
| 20260901074058 | 62 | 111 | 1.0 | 4.0 | 0.01 | 0.08 | 0.01 | 89 | 1009.8 |
| 20260901073558 | 62 | 94 | 2.0 | 4.0 | 0.00 | 0.07 | 0.00 | 89 | 1009.9 |
| 20260901073057 | 62 | 96 | 2.0 | 4.0 | 0.00 | 0.07 | 0.00 | 89 | 1010.0 |
| 20260901072559 | 62 | 109 | 1.0 | 5.0 | 0.00 | 0.07 | 0.00 | 90 | 1010.3 |
| 20260901072059 | 62 | 111 | 2.0 | 5.0 | 0.00 | 0.07 | 0.00 | 90 | 1010.4 |
| 20260901071556 | 62 | 105 | 1.0 | 4.0 | 0.00 | 0.07 | 0.00 | 90 | 1010.1 |
| 20260901071055 | 62 | 92 | 1.0 | 3.0 | 0.00 | 0.07 | 0.00 | 90 | 1010.0 |
| 20260901070557 | 62 | 55 | 0.0 | 1.0 | 0.00 | 0.07 | 0.00 | 90 | 1009.9 |
| 20260901070055 | 62 | 56 | 0.0 | 1.0 | 0.00 | 0.07 | 0.00 | 90 | 1009.8 |
| 20260901065557 | 62 | 56 | 0.0 | 1.0 | 0.00 | 0.07 | 0.00 | 90 | 1009.9 |
| 20260901065055 | 62 | 56 | 0.0 | 4.0 | 0.00 | 0.07 | 0.00 | 90 | 1009.7 |
| 20260901064558 | 62 | 56 | 1.0 | 4.0 | 0.00 | 0.07 | 0.00 | 90 | 1009.8 |
| 20260901064053 | 62 | 63 | 1.0 | 3.0 | 0.00 | 0.07 | 0.00 | 90 | 1010.2 |
| 20260901063553 | 62 | 189 | 0.0 | 2.0 | 0.00 | 0.07 | 0.00 | 89 | 1010.5 |
| 20260901063054 | 62 | 193 | 0.0 | 2.0 | 0.00 | 0.07 | 0.00 | 89 | 1010.3 |
| 20260901062550 | 62 | 215 | 0.0 | 1.0 | 0.00 | 0.07 | 0.00 | 89 | 1010.0 |
| 20260901062050 | 62 | 217 | 0.0 | 1.0 | 0.00 | 0.07 | 0.00 | 89 | 1009.7 |
| 20260901061554 | 62 | 215 | 0.0 | 1.0 | 0.00 | 0.07 | 0.00 | 89 | 1009.8 |
| 20260901061050 | 62 | 213 | 0.0 | 1.0 | 0.00 | 0.07 | 0.00 | 89 | 1009.6 |
| 20260901060549 | 62 | 214 | 0.0 | 1.0 | 0.00 | 0.07 | 0.00 | 89 | 1009.6 |
| 20260901060048 | 62 | 223 | 0.0 | 1.0 | 0.00 | 0.07 | 0.00 | 89 | 1009.4 |
| 20260901055550 | 62 | 222 | 0.0 | 1.0 | 0.00 | 0.07 | 0.07 | 89 | 1009.2 |
| 20260901055047 | 62 | 221 | 0.0 | 1.0 | 0.00 | 0.07 | 0.07 | 89 | 1009.3 |
| 20260901054546 | 62 | 219 | 0.0 | 1.0 | 0.00 | 0.07 | 0.07 | 89 | 1009.5 |
| 20260901054047 | 62 | 219 | 0.0 | 2.0 | 0.00 | 0.07 | 0.07 | 89 | 1009.6 |
| 20260901053547 | 62 | 194 | 0.0 | 3.0 | 0.00 | 0.07 | 0.07 | 89 | 1009.6 |
| 20260901053109 | 62 | 215 | 0.0 | 3.0 | 0.00 | 0.07 | 0.07 | 89 | 1009.6 |
| 20260901052546 | 62 | 197 | 0.0 | 1.0 | 0.00 | 0.07 | 0.07 | 89 | 1009.6 |
| 20260901052045 | 62 | 201 | 0.0 | 2.0 | 0.00 | 0.07 | 0.07 | 89 | 1009.7 |
| 20260901051544 | 62 | 201 | 0.0 | 2.0 | 0.00 | 0.07 | 0.07 | 88 | 1009.7 |
| 20260901051045 | 62 | 208 | 0.0 | 2.0 | 0.00 | 0.07 | 0.07 | 88 | 1009.7 |
| 20260901050545 | 62 | 205 | 0.0 | 1.0 | 0.00 | 0.07 | 0.07 | 88 | 1009.6 |
| 20260901050051 | 62 | 207 | 0.0 | 1.0 | 0.00 | 0.07 | 0.07 | 88 | 1009.7 |
| 20260901045544 | 62 | 207 | 0.0 | 1.0 | 0.00 | 0.07 | 0.07 | 88 | 1009.6 |
| 20260901045044 | 63 | 209 | 0.0 | 1.0 | 0.01 | 0.07 | 0.07 | 88 | 1009.7 |
| 20260901044544 | 63 | 209 | 0.0 | 0.0 | 0.01 | 0.07 | 0.07 | 88 | 1009.8 |
| 20260901044044 | 63 | 210 | 0.0 | 2.0 | 0.01 | 0.07 | 0.07 | 88 | 1009.7 |
| 20260901043544 | 63 | 210 | 0.0 | 3.0 | 0.01 | 0.07 | 0.07 | 88 | 1009.7 |
| 20260901043044 | 63 | 207 | 1.0 | 3.0 | 0.02 | 0.07 | 0.07 | 88 | 1009.6 |
| 20260901042542 | 63 | 211 | 2.0 | 5.0 | 0.02 | 0.07 | 0.07 | 87 | 1009.0 |
| 20260901042042 | 63 | 341 | 1.0 | 5.0 | 0.03 | 0.07 | 0.07 | 86 | 1008.5 |
| 20260901041542 | 63 | 22 | 3.0 | 4.0 | 0.03 | 0.07 | 0.07 | 86 | 1009.0 |
| 20260901041042 | 63 | 308 | 0.0 | 2.0 | 0.04 | 0.07 | 0.07 | 86 | 1009.5 |
| 20260901040542 | 63 | 278 | 0.0 | 3.0 | 0.04 | 0.07 | 0.07 | 86 | 1009.8 |
| 20260901040042 | 63 | 9 | 0.0 | 3.0 | 0.04 | 0.07 | 0.07 | 85 | 1009.9 |
| 20260901035542 | 63 | 295 | 0.0 | 4.0 | 0.05 | 0.06 | 0.06 | 85 | 1010.0 |
| 20260901035042 | 63 | 234 | 1.0 | 5.0 | 0.06 | 0.06 | 0.06 | 84 | 1010.4 |
| 20260901034540 | 63 | 193 | 1.0 | 5.0 | 0.06 | 0.06 | 0.06 | 83 | 1010.6 |
| 20260901034040 | 64 | 219 | 1.0 | 4.0 | 0.06 | 0.06 | 0.06 | 82 | 1010.8 |
| 20260901033540 | 64 | 235 | 0.0 | 6.0 | 0.06 | 0.06 | 0.06 | 82 | 1011.0 |
| 20260901033042 | 64 | 225 | 2.0 | 7.0 | 0.05 | 0.05 | 0.05 | 80 | 1011.1 |
| 20260901032540 | 64 | 183 | 3.0 | 7.0 | 0.05 | 0.05 | 0.05 | 79 | 1011.0 |
| 20260901032040 | 65 | 210 | 2.0 | 6.0 | 0.04 | 0.04 | 0.04 | 78 | 1011.1 |
| 20260901031548 | 65 | 216 | 1.0 | 6.0 | 0.04 | 0.04 | 0.04 | 76 | 1011.0 |
| 20260901031041 | 66 | 194 | 2.0 | 11.0 | 0.03 | 0.03 | 0.03 | 75 | 1010.8 |
| 20260901030538 | 67 | 240 | 3.0 | 16.0 | 0.03 | 0.03 | 0.03 | 72 | 1010.8 |
| 20260901030037 | 68 | 188 | 5.0 | 16.0 | 0.03 | 0.03 | 0.03 | 69 | 1010.5 |
| 20260901025537 | 70 | 178 | 3.0 | 11.0 | 0.01 | 0.01 | 0.01 | 63 | 1010.3 |
| 20260901025037 | 70 | 176 | 3.0 | 11.0 | 0.00 | 0.00 | 0.00 | 59 | 1010.3 |
| 20260901024537 | 70 | 163 | 0.0 | 2.0 | 0.00 | 0.00 | 0.00 | 62 | 1009.8 |
| 20260901024037 | 70 | 119 | 0.0 | 2.0 | 0.00 | 0.00 | 0.00 | 62 | 1009.3 |
| 20260901023537 | 70 | 106 | 0.0 | 2.0 | 0.00 | 0.00 | 0.00 | 62 | 1009.2 |
| 20260901023040 | 70 | 105 | 0.0 | 1.0 | 0.00 | 0.00 | 0.00 | 59 | 1009.0 |
| 20260901022535 | 70 | 103 | 0.0 | 1.0 | 0.00 | 0.00 | 0.00 | 58 | 1008.8 |
| 20260901022036 | 71 | 113 | 0.0 | 1.0 | 0.00 | 0.00 | 0.00 | 57 | 1008.8 |
| 20260901021535 | 71 | 105 | 0.0 | 2.0 | 0.00 | 0.00 | 0.00 | 58 | 1008.7 |
| 20260901021036 | 71 | 115 | 0.0 | 4.0 | 0.00 | 0.00 | 0.00 | 58 | 1008.7 |
| 20260901020537 | 71 | 102 | 2.0 | 4.0 | 0.00 | 0.00 | 0.00 | 56 | 1008.7 |
| 20260901020037 | 71 | 227 | 1.0 | 3.0 | 0.00 | 0.00 | 0.00 | 55 | 1008.6 |
| 20260901015536 | 71 | 128 | 1.0 | 3.0 | 0.00 | 0.00 | 0.00 | 55 | 1008.6 |
| 20260901015034 | 71 | 109 | 0.0 | 3.0 | 0.00 | 0.00 | 0.00 | 55 | 1008.5 |
| 20260901014534 | 72 | 250 | 0.0 | 3.0 | 0.00 | 0.00 | 0.00 | 55 | 1008.6 |
| 20260901014036 | 72 | 242 | 1.0 | 3.0 | 0.00 | 0.00 | 0.00 | 54 | 1008.8 |
| 20260901013534 | 72 | 216 | 0.0 | 5.0 | 0.00 | 0.00 | 0.00 | 55 | 1008.8 |
| 20260901013034 | 72 | 204 | 0.0 | 5.0 | 0.00 | 0.00 | 0.00 | 54 | 1008.7 |
| 20260901012533 | 73 | 213 | 0.0 | 5.0 | 0.00 | 0.00 | 0.00 | 54 | 1008.6 |
| 20260901012033 | 73 | 232 | 1.0 | 7.0 | 0.00 | 0.00 | 0.00 | 53 | 1008.7 |
| 20260901011533 | 73 | 236 | 0.0 | 10.0 | 0.00 | 0.00 | 0.00 | 52 | 1008.8 |
| 20260901011033 | 74 | 283 | 3.0 | 13.0 | 0.00 | 0.00 | 0.00 | 50 | 1008.9 |
| 20260901010534 | 76 | 262 | 3.0 | 13.0 | 0.00 | 0.00 | 0.00 | 49 | 1009.0 |
| 20260901010037 | 79 | 211 | 5.0 | 11.0 | 0.00 | 0.00 | 0.00 | 43 | 1008.7 |
| 20260901005532 | 81 | 203 | 2.0 | 8.0 | 0.00 | 0.00 | 0.00 | 34 | 1008.4 |
| 20260901005032 | 81 | 240 | 2.0 | 6.0 | 0.00 | 0.00 | 0.00 | 33 | 1008.2 |
| 20260901004532 | 82 | 360 | 2.0 | 6.0 | 0.00 | 0.00 | 0.00 | 31 | 1007.9 |
| 20260901004032 | 82 | 360 | 0.0 | 4.0 | 0.00 | 0.00 | 0.00 | 29 | 1007.7 |
| 20260901003531 | 82 | 13 | 2.0 | 5.0 | 0.00 | 0.00 | 0.00 | 29 | 1007.6 |
| 20260901003031 | 82 | 360 | 1.0 | 6.0 | 0.00 | 0.00 | 0.00 | 29 | 1007.6 |
| 20260901002530 | 82 | 25 | 2.0 | 6.0 | 0.00 | 0.00 | 0.00 | 28 | 1007.5 |
| 20260901002033 | 83 | 360 | 3.0 | 8.0 | 0.00 | 0.00 | 0.00 | 28 | 1007.5 |
| 20260901001530 | 83 | 360 | 4.0 | 10.0 | 0.00 | 0.00 | 0.00 | 28 | 1007.5 |
| 20260901001030 | 83 | 19 | 5.0 | 10.0 | 0.00 | 0.00 | 0.00 | 28 | 1007.5 |
| 20260901000529 | 83 | 10 | 2.0 | 7.0 | 0.00 | 0.00 | 0.00 | 28 | 1007.5 |
| 20260901000028 | 83 | 9 | 3.0 | 6.0 | 0.00 | 0.00 | 0.00 | 28 | 1007.5 |
| 20260831235528 | 83 | 30 | 3.0 | 8.0 | 0.00 | 0.00 | 0.00 | 29 | 1007.5 |
| 20260831235029 | 84 | 30 | 3.0 | 8.0 | 0.00 | 0.00 | 0.00 | 28 | 1007.5 |
| 20260831234527 | 84 | 26 | 2.0 | 5.0 | 0.00 | 0.00 | 0.00 | 29 | 1007.4 |
| 20260831234028 | 84 | 17 | 3.0 | 5.0 | 0.00 | 0.00 | 0.00 | 29 | 1007.3 |
| 20260831233529 | 84 | 38 | 2.0 | 6.0 | 0.00 | 0.00 | 0.00 | 29 | 1007.5 |
| 20260831233025 | 84 | 14 | 2.0 | 6.0 | 0.00 | 0.00 | 0.00 | 29 | 1007.4 |
| 20260831232525 | 85 | 30 | 2.0 | 10.0 | 0.00 | 0.00 | 0.00 | 29 | 1007.4 |
| 20260831232024 | 85 | 46 | 4.0 | 10.0 | 0.00 | 0.00 | 0.00 | 27 | 1007.6 |
| 20260831231523 | 85 | 69 | 6.0 | 10.0 | 0.00 | 0.00 | 0.00 | 26 | 1007.7 |
| 20260831231024 | 85 | 34 | 4.0 | 10.0 | 0.00 | 0.00 | 0.00 | 27 | 1007.7 |
| 20260831230526 | 85 | 63 | 6.0 | 10.0 | 0.00 | 0.00 | 0.00 | 27 | 1007.7 |
| 20260831230023 | 85 | 35 | 5.0 | 10.0 | 0.00 | 0.00 | 0.00 | 27 | 1007.8 |
| 20260831225522 | 85 | 78 | 5.0 | 10.0 | 0.00 | 0.00 | 0.00 | 27 | 1007.8 |
| 20260831225021 | 85 | 47 | 3.0 | 8.0 | 0.00 | 0.00 | 0.00 | 27 | 1007.9 |
| 20260831224520 | 85 | 52 | 4.0 | 8.0 | 0.00 | 0.00 | 0.00 | 27 | 1007.9 |
| 20260831224020 | 85 | 35 | 4.0 | 8.0 | 0.00 | 0.00 | 0.00 | 27 | 1007.9 |
| 20260831223518 | 84 | 49 | 5.0 | 8.0 | 0.00 | 0.00 | 0.00 | 28 | 1008.0 |
| 20260831223020 | 84 | 44 | 5.0 | 8.0 | 0.00 | 0.00 | 0.00 | 29 | 1008.1 |
| 20260831222518 | 84 | 56 | 3.0 | 9.0 | 0.00 | 0.00 | 0.00 | 28 | 1008.2 |
| 20260831222016 | 84 | 39 | 5.0 | 8.0 | 0.00 | 0.00 | 0.00 | 29 | 1008.2 |
| 20260831221529 | 85 | 65 | 4.0 | 10.0 | 0.00 | 0.00 | 0.00 | 28 | 1008.3 |
| 20260831221016 | 85 | 44 | 5.0 | 10.0 | 0.00 | 0.00 | 0.00 | 28 | 1008.3 |
| 20260831220515 | 85 | 94 | 4.0 | 11.0 | 0.00 | 0.00 | 0.00 | 29 | 1008.2 |
| 20260831220015 | 85 | 37 | 5.0 | 11.0 | 0.00 | 0.00 | 0.00 | 29 | 1008.4 |
| 20260831215517 | 85 | 48 | 5.0 | 9.0 | 0.00 | 0.00 | 0.00 | 28 | 1008.4 |
| 20260831215015 | 85 | 59 | 5.0 | 9.0 | 0.00 | 0.00 | 0.00 | 27 | 1008.4 |
| 20260831214514 | 84 | 82 | 2.0 | 10.0 | 0.00 | 0.00 | 0.00 | 29 | 1008.4 |
| 20260831214014 | 84 | 32 | 5.0 | 12.0 | 0.00 | 0.00 | 0.00 | 28 | 1008.5 |
| 20260831213513 | 84 | 49 | 5.0 | 10.0 | 0.00 | 0.00 | 0.00 | 29 | 1008.6 |
| 20260831213013 | 84 | 109 | 2.0 | 8.0 | 0.00 | 0.00 | 0.00 | 30 | 1008.7 |
| 20260831212513 | 84 | 22 | 3.0 | 9.0 | 0.00 | 0.00 | 0.00 | 30 | 1008.8 |
| 20260831212013 | 83 | 77 | 4.0 | 8.0 | 0.00 | 0.00 | 0.00 | 30 | 1008.8 |
| 20260831211513 | 83 | 46 | 4.0 | 9.0 | 0.00 | 0.00 | 0.00 | 31 | 1008.9 |
| 20260831211012 | 83 | 67 | 4.0 | 9.0 | 0.00 | 0.00 | 0.00 | 31 | 1009.0 |
| 20260831210515 | 83 | 11 | 4.0 | 9.0 | 0.00 | 0.00 | 0.00 | 31 | 1009.0 |
| 20260831210012 | 83 | 11 | 3.0 | 9.0 | 0.00 | 0.00 | 0.00 | 31 | 1009.2 |
| 20260831205512 | 83 | 11 | 5.0 | 9.0 | 0.00 | 0.00 | 0.00 | 30 | 1009.3 |
| 20260831205014 | 83 | 9 | 5.0 | 8.0 | 0.00 | 0.00 | 0.00 | 32 | 1009.3 |
| 20260831204512 | 83 | 11 | 3.0 | 9.0 | 0.00 | 0.00 | 0.00 | 31 | 1009.4 |
| 20260831204012 | 83 | 12 | 4.0 | 9.0 | 0.00 | 0.00 | 0.00 | 32 | 1009.6 |
| 20260831203511 | 83 | 11 | 4.0 | 11.0 | 0.00 | 0.00 | 0.00 | 31 | 1009.6 |
| 20260831203011 | 83 | 80 | 6.0 | 11.0 | 0.00 | 0.00 | 0.00 | 30 | 1009.7 |
| 20260831202511 | 83 | 61 | 5.0 | 12.0 | 0.00 | 0.00 | 0.00 | 31 | 1009.7 |
| 20260831202011 | 84 | 62 | 2.0 | 7.0 | 0.00 | 0.00 | 0.00 | 31 | 1009.7 |
| 20260831201511 | 83 | 109 | 4.0 | 9.0 | 0.00 | 0.00 | 0.00 | 31 | 1009.9 |
| 20260831201014 | 84 | 94 | 2.0 | 10.0 | 0.00 | 0.00 | 0.00 | 29 | 1010.0 |
| 20260831200511 | 85 | 67 | 3.0 | 8.0 | 0.00 | 0.00 | 0.00 | 30 | 1010.0 |
| 20260831200010 | 84 | 98 | 2.0 | 10.0 | 0.00 | 0.00 | 0.00 | 31 | 1010.1 |
| 20260831195509 | 83 | 5 | 3.0 | 10.0 | 0.00 | 0.00 | 0.00 | 30 | 1010.1 |
| 20260831195009 | 84 | 42 | 5.0 | 10.0 | 0.00 | 0.00 | 0.00 | 28 | 1010.3 |
| 20260831194521 | 84 | 116 | 5.0 | 8.0 | 0.00 | 0.00 | 0.00 | 31 | 1010.3 |
| 20260831194007 | 83 | 89 | 1.0 | 7.0 | 0.00 | 0.00 | 0.00 | 30 | 1010.4 |
| 20260831193508 | 83 | 43 | 5.0 | 7.0 | 0.00 | 0.00 | 0.00 | 29 | 1010.4 |
| 20260831193006 | 83 | 102 | 3.0 | 9.0 | 0.00 | 0.00 | 0.00 | 30 | 1010.5 |
| 20260831192506 | 82 | 63 | 5.0 | 9.0 | 0.00 | 0.00 | 0.00 | 30 | 1010.5 |
| 20260831192008 | 83 | 73 | 4.0 | 8.0 | 0.00 | 0.00 | 0.00 | 30 | 1010.7 |
| 20260831191505 | 83 | 115 | 4.0 | 8.0 | 0.00 | 0.00 | 0.00 | 30 | 1010.7 |
| 20260831191004 | 82 | 63 | 0.0 | 7.0 | 0.00 | 0.00 | 0.00 | 34 | 1010.8 |
| 20260831190503 | 81 | 91 | 2.0 | 6.0 | 0.00 | 0.00 | 0.00 | 31 | 1010.9 |
| 20260831190003 | 81 | 116 | 1.0 | 7.0 | 0.00 | 0.00 | 0.00 | 33 | 1011.0 |
| 20260831185501 | 81 | 73 | 3.0 | 7.0 | 0.00 | 0.00 | 0.00 | 34 | 1011.0 |
| 20260831185003 | 80 | 144 | 0.0 | 4.0 | 0.00 | 0.00 | 0.00 | 38 | 1011.0 |
| 20260831184502 | 81 | 11 | 1.0 | 4.0 | 0.00 | 0.00 | 0.00 | 34 | 1011.0 |
| 20260831184100 | 80 | 61 | 0.0 | 4.0 | 0.00 | 0.00 | 0.00 | 36 | 1011.0 |
| 20260831183600 | 80 | 28 | 2.0 | 6.0 | 0.00 | 0.00 | 0.00 | 34 | 1011.2 |
| 20260831183059 | 80 | 33 | 2.0 | 6.0 | 0.00 | 0.00 | 0.00 | 35 | 1011.2 |
| 20260831182558 | 80 | 38 | 0.0 | 6.0 | 0.00 | 0.00 | 0.00 | 35 | 1011.2 |
| 20260831182057 | 79 | 71 | 3.0 | 7.0 | 0.00 | 0.00 | 0.00 | 36 | 1011.2 |
| 20260831181556 | 79 | 75 | 3.0 | 5.0 | 0.00 | 0.00 | 0.00 | 37 | 1011.2 |
| 20260831181056 | 78 | 36 | 2.0 | 7.0 | 0.00 | 0.00 | 0.00 | 38 | 1011.2 |
| 20260831180555 | 78 | 109 | 2.0 | 7.0 | 0.00 | 0.00 | 0.00 | 38 | 1011.3 |
| 20260831180054 | 78 | 42 | 2.0 | 5.0 | 0.00 | 0.00 | 0.00 | 38 | 1011.4 |
| 20260831175554 | 78 | 122 | 2.0 | 7.0 | 0.00 | 0.00 | 0.00 | 38 | 1011.4 |
| 20260831175054 | 78 | 90 | 3.0 | 7.0 | 0.00 | 0.00 | 0.00 | 38 | 1011.5 |
| 20260831174600 | 78 | 84 | 4.0 | 8.0 | 0.00 | 0.00 | 0.00 | 38 | 1011.4 |
| 20260831174053 | 78 | 118 | 4.0 | 8.0 | 0.00 | 0.00 | 0.00 | 36 | 1011.3 |
| 20260831173553 | 78 | 57 | 1.0 | 3.0 | 0.00 | 0.00 | 0.00 | 44 | 1011.4 |
| 20260831173051 | 77 | 234 | 0.0 | 3.0 | 0.00 | 0.00 | 0.00 | 47 | 1011.3 |
| 20260831172549 | 77 | 19 | 1.0 | 3.0 | 0.00 | 0.00 | 0.00 | 46 | 1011.3 |
| 20260831172048 | 76 | 53 | 1.0 | 3.0 | 0.00 | 0.00 | 0.00 | 46 | 1011.4 |
| 20260831171550 | 76 | 37 | 0.0 | 3.0 | 0.00 | 0.00 | 0.00 | 46 | 1011.4 |
| 20260831171047 | 75 | 37 | 1.0 | 4.0 | 0.00 | 0.00 | 0.00 | 49 | 1011.4 |
| 20260831170547 | 74 | 37 | 1.0 | 3.0 | 0.00 | 0.00 | 0.00 | 48 | 1011.4 |
| 20260831170126 | 74 | 250 | 1.0 | 3.0 | 0.00 | 0.00 | 0.00 | 51 | 1011.5 |
| 20260831165546 | 74 | 351 | 0.0 | 3.0 | 0.00 | 0.00 | 0.00 | 50 | 1011.5 |
| 20260831165046 | 74 | 232 | 0.0 | 3.0 | 0.00 | 0.00 | 0.00 | 49 | 1011.5 |
| 20260831164546 | 74 | 225 | 1.0 | 3.0 | 0.00 | 0.00 | 0.00 | 51 | 1011.4 |
| 20260831164144 | 73 | 322 | 1.0 | 3.0 | 0.00 | 0.00 | 0.00 | 50 | 1011.4 |
| 20260831163543 | 73 | 205 | 0.0 | 3.0 | 0.00 | 0.00 | 0.00 | 54 | 1011.3 |